Track FOX-1D (AO-92) now! 10-day predictions FOX-1D (AO-92) is classified as:
1 43137U 18004AC 21108.62893882 .00002552 00000-0 10488-3 0 9997 2 43137 97.4094 183.2697 0010383 67.4983 292.7353 15.25051931181543